GPS BIII-4 (PRN 14)

Last updated on Fri Oct 24 2025 00:03:21 GMT+0000 (Coordinated Universal Time)

1 46826U 20078A 25289.20312859 -.00000051 00000+0 00000+0 0 9994 2 46826 54.0306 220.6753 0063294 203.5880 326.5084 2.00567133 36612
UTC large
Height (km)
Speed (km/s)
/
Latitude / Longitude
Inclination (degrees)
Orbital Period (minutes)
Azimuth
Elevation
Range (km)
Doppler Factor

Next 0 passes for location: London (51.5072 / 0.1276)

Sorry there are no passes over London.